VU3ZAG-WX Weather Reports


Display with metric or nautical units.
time (UTC)temp
F
wind
direction
speed
MPH
gust
MPH
rain 1hr
in
rain 24hr
in
rain mn
in
humidity
%
barometer
mb
20260505090438 83 0.0 0.0 0.00 0.00 0.00 73 1009.1
20260505085432 83 0.0 0.0 0.00 0.00 0.00 73 1009.1
20260505084427 83 0.0 0.0 0.00 0.00 0.00 73 1009.1
20260505083422 83 0.0 0.0 0.00 0.00 0.00 73 1009.1
20260505082417 83 0.0 0.0 0.00 0.00 0.00 73 1009.1
20260505081411 83 0.0 0.0 0.00 0.00 0.00 73 1009.1
20260505080405 83 0.0 0.0 0.00 0.00 0.00 73 1009.1
20260505075359 83 0.0 0.0 0.00 0.00 0.00 73 1009.1
20260505074354 83 0.0 0.0 0.00 0.00 0.00 73 1009.1
20260505073349 83 0.0 0.0 0.00 0.00 0.00 73 1009.1
20260505072344 83 0.0 0.0 0.00 0.00 0.00 73 1009.1
20260505071339 83 0.0 0.0 0.00 0.00 0.00 73 1009.1
20260505070330 83 0.0 0.0 0.00 0.00 0.00 73 1009.1
20260505065325 83 0.0 0.0 0.00 0.00 0.00 73 1009.1
20260505064320 83 0.0 0.0 0.00 0.00 0.00 73 1009.1
20260505063315 83 0.0 0.0 0.00 0.00 0.00 73 1009.1
20260505062308 83 0.0 0.0 0.00 0.00 0.00 73 1009.1
20260505061301 83 0.0 0.0 0.00 0.00 0.00 73 1009.1
20260505060256 83 0.0 0.0 0.00 0.00 0.00 73 1009.1
20260505055250 83 0.0 0.0 0.00 0.00 0.00 73 1009.1
20260505054244 83 0.0 0.0 0.00 0.00 0.00 73 1009.1
20260505053239 83 0.0 0.0 0.00 0.00 0.00 73 1009.1
20260505052234 83 0.0 0.0 0.00 0.00 0.00 73 1009.1
20260505051229 83 0.0 0.0 0.00 0.00 0.00 73 1009.1
20260505050224 83 0.0 0.0 0.00 0.00 0.00 73 1009.1
20260505041158 83 0.0 0.0 0.00 0.00 0.00 73 1009.1
20260505040153 83 0.0 0.0 0.00 0.00 0.00 73 1009.1
20260505035148 83 0.0 0.0 0.00 0.00 0.00 73 1009.1
20260505034142 83 0.0 0.0 0.00 0.00 0.00 73 1009.1
20260505033138 83 0.0 0.0 0.00 0.00 0.00 73 1009.1
20260505032132 83 0.0 0.0 0.00 0.00 0.00 73 1009.1
20260505031127 83 0.0 0.0 0.00 0.00 0.00 73 1009.1
20260505030122 83 0.0 0.0 0.00 0.00 0.00 73 1009.1
20260505025116 83 0.0 0.0 0.00 0.00 0.00 73 1009.1
20260505024111 83 0.0 0.0 0.00 0.00 0.00 73 1009.1
20260505023105 83 0.0 0.0 0.00 0.00 0.00 73 1009.1
20260505022100 83 0.0 0.0 0.00 0.00 0.00 73 1009.1
20260505021055 83 0.0 0.0 0.00 0.00 0.00 73 1009.1
20260505020050 83 0.0 0.0 0.00 0.00 0.00 73 1009.1
20260505015043 83 0.0 0.0 0.00 0.00 0.00 73 1009.1
20260505014038 83 0.0 0.0 0.00 0.00 0.00 73 1009.1
20260505013032 83 0.0 0.0 0.00 0.00 0.00 73 1009.1
20260505012027 83 0.0 0.0 0.00 0.00 0.00 73 1009.1
20260505011023 83 0.0 0.0 0.00 0.00 0.00 73 1009.1
20260505010017 83 0.0 0.0 0.00 0.00 0.00 73 1009.1
20260505005012 83 0.0 0.0 0.00 0.00 0.00 73 1009.1
20260505004007 83 0.0 0.0 0.00 0.00 0.00 73 1009.1
20260505003002 83 0.0 0.0 0.00 0.00 0.00 73 1009.1
20260505001957 83 0.0 0.0 0.00 0.00 0.00 73 1009.1
20260505000951 83 0.0 0.0 0.00 0.00 0.00 73 1009.1
20260504235947 83 0.0 0.0 0.00 0.00 0.00 73 1009.1
20260504234941 83 0.0 0.0 0.00 0.00 0.00 73 1009.1
20260504233937 83 0.0 0.0 0.00 0.00 0.00 73 1009.1
20260504232932 83 0.0 0.0 0.00 0.00 0.00 73 1009.1
20260504231927 83 0.0 0.0 0.00 0.00 0.00 73 1009.1
20260504230921 83 0.0 0.0 0.00 0.00 0.00 76 1009.0
20260504225916 83 0.0 0.0 0.00 0.00 0.00 76 1008.9
20260504224909 84 0.0 0.0 0.00 0.00 0.00 74 1008.8
20260504223904 84 0.0 0.0 0.00 0.00 0.00 73 1008.7
20260504222858 85 0.0 0.0 0.00 0.00 0.00 71 1008.6
20260504221852 85 0.0 0.0 0.00 0.00 0.00 69 1008.5
20260504220847 85 0.0 0.0 0.00 0.00 0.00 68 1008.5
20260504215842 85 0.0 0.0 0.00 0.00 0.00 70 1008.5
20260504214837 85 0.0 0.0 0.00 0.00 0.00 74 1008.5
20260504213831 85 0.0 0.0 0.00 0.00 0.00 74 1008.6
20260504212826 85 0.0 0.0 0.00 0.00 0.00 68 1008.6
20260504211821 85 0.0 0.0 0.00 0.00 0.00 72 1008.7
20260504210816 85 0.0 0.0 0.00 0.00 0.00 71 1008.7
20260504205810 86 0.0 0.0 0.00 0.00 0.00 69 1008.7
20260504204805 86 0.0 0.0 0.00 0.00 0.00 68 1008.7
20260504203759 86 0.0 0.0 0.00 0.00 0.00 68 1008.7
20260504202754 86 0.0 0.0 0.00 0.00 0.00 68 1008.8
20260504201748 85 0.0 0.0 0.00 0.00 0.00 68 1008.9
20260504200744 85 0.0 0.0 0.00 0.00 0.00 69 1008.9
20260504195738 84 0.0 0.0 0.00 0.00 0.00 69 1009.1
20260504194733 84 0.0 0.0 0.00 0.00 0.00 73 1009.2
20260504193727 84 0.0 0.0 0.00 0.00 0.00 71 1009.3
20260504192721 84 0.0 0.0 0.00 0.00 0.00 68 1009.4
20260504191715 84 0.0 0.0 0.00 0.00 0.00 74 1009.6
20260504190709 85 0.0 0.0 0.00 0.00 0.00 71 1009.8
20260504185703 85 0.0 0.0 0.00 0.00 0.00 71 1010.0
20260504184658 85 0.0 0.0 0.00 0.00 0.00 73 1010.1
20260504183651 86 0.0 0.0 0.00 0.00 0.00 69 1010.2
20260504182646 85 0.0 0.0 0.00 0.00 0.00 75 1010.4
20260504181641 86 0.0 0.0 0.00 0.00 0.00 74 1010.5
20260504180635 87 0.0 0.0 0.00 0.00 0.00 69 1010.5
20260504175629 87 0.0 0.0 0.00 0.00 0.00 71 1010.7
20260504174623 87 0.0 0.0 0.00 0.00 0.00 70 1010.8
20260504173618 87 0.0 0.0 0.00 0.00 0.00 68 1010.9
20260504172612 86 0.0 0.0 0.00 0.00 0.00 72 1011.0
20260504171606 86 0.0 0.0 0.00 0.00 0.00 72 1011.0
20260504170600 86 0.0 0.0 0.00 0.00 0.00 70 1011.0
20260504150452 84 0.0 0.0 0.00 0.00 0.00 74 1009.9
20260504140416 84 0.0 0.0 0.00 0.00 0.00 77 1009.3
20260504130343 90 0.0 0.0 0.00 0.00 0.00 72 1007.7
20260504120309 99 0.0 0.0 0.00 0.00 0.00 56 1006.4
20260504110235 101 0.0 0.0 0.00 0.00 0.00 52 1005.9
20260504100158 102 0.0 0.0 0.00 0.00 0.00 50 1006.6